Flag for Canada Weather past 2 weeks in Trois-Rivieres, Quebec, Canada

Now
34 °F

Chilly.


Feels Like: 22 °F
Forecast: N/A
Wind: 20 mph from Southwest

Location: Trois Rivieres

Current Time: Mar 29, 2015 at 5:38:30 PM

Latest Report: Mar 29, 2015 at 5:00 PM


Visibility: N/A

Pressure: 30.02 "Hg

Humidity: 62%

Dew point: 22 °F

Location of Trois-RivieresLocation

Historic Weather in Trois-Rivieres — Graph

°F

Trois-Rivieres temperature yesterday

Maximum temperature yesterday: 31 °F (at 7:00 PM)
Minimum temperature yesterday: 14 °F (at 7:00 AM)
Average temperature yesterday: 22 °F

Past Weeks' High & Low Weather Summary

 TemperatureHumidityPressure
High39 °F (Mar 26, 12:00 PM)100% (Mar 14, 7:00 PM)30.39 "Hg (Mar 14, 7:00 PM)
Low0 °F (Mar 22, 8:00 AM)25% (Mar 28, 5:00 PM)29.46 "Hg (Mar 17, 11:00 AM)
Average22 °F70%30.00 "Hg
* Reported Mar 14 4:00 PM — Mar 29 4:00 PM, Trois-Rivieres, Weather by CustomWeather, © 2015

Note: Actual official high and low records may vary slightly from our data, if they occured in-between our weather recording intervals... More about our weather records

Advertising

Trois-Rivieres weather history for previous 24 hours

 ConditionsComfort  
Time TempWeatherWind HumidityBarometerVisibility
4:00 PM
Sun, Mar 29
33 °FChilly.20 mph56%30.03 "HgN/A
3:00 PM31 °FChilly.22 mph59%30.05 "HgN/A
2:00 PM31 °FChilly.17 mph59%30.09 "HgN/A
1:00 PM29 °FChilly.12 mph55%30.13 "HgN/A
12:00 PM27 °FChilly.12 mph51%30.16 "HgN/A
11:00 AM24 °FCold.12 mph55%30.18 "HgN/A
10:00 AM22 °FCold.12 mph66%30.19 "HgN/A
9:00 AM20 °FCold.9 mph69%30.19 "HgN/A
8:00 AM18 °FCold.6 mph73%30.18 "HgN/A
7:00 AM14 °FCold.2 mph73%30.16 "HgN/A
6:00 AM11 °FCold.2 mph69%30.15 "HgN/A
5:00 AM13 °FCold.2 mph60%30.14 "HgN/A
4:00 AM12 °FCold.2 mph66%30.12 "HgN/A
3:00 AM13 °FCold.6 mph66%30.11 "HgN/A
2:00 AM17 °FCold.6 mph47%30.10 "HgN/A
1:00 AM19 °FCold.6 mph41%30.10 "HgN/A
12:00 AM20 °FCold.8 mph41%30.09 "HgN/A
11:00 PM
Sat, Mar 28
19 °FCold.6 mph56%30.09 "HgN/A
10:00 PM21 °FCold.3 mph51%30.07 "HgN/A
9:00 PM24 °FCold.5 mph33%30.05 "HgN/A
8:00 PM27 °FChilly.6 mph30%30.03 "HgN/A
7:00 PM31 °FChilly.9 mph26%30.00 "HgN/A
6:00 PM30 °FChilly.9 mph30%29.98 "HgN/A
5:00 PM29 °FChilly.10 mph25%29.97 "HgN/A
Weather by CustomWeather, © 2015

See weather overviewHow to use our weather pages